Precipitable_Water
0.43 0.44 0.43 0.41 0.44 0.48 0.52 0.57 0.60 0.63 0.65 0.67 0.69 0.70 0.73 0.76 0.80 0.85 0.73 0.83 1.16 1.42 1.43 1.36 1.46 1.50 1.52 1.42 1.53 1.58 1.15 1.02 1.09 1.15 1.31 1.52 1.44 1.67 1.78 1.55 1.59 1.64 1.53 1.51 1.45
0.45 0.44 0.42 0.41 0.42 0.39 0.41 0.45 0.51 0.56 0.60 0.64 0.67 0.70 0.71 0.77 0.72 0.68 0.83 0.93 1.26 1.40 1.23 1.13 1.13 1.29 1.22 1.25 1.32 1.28 1.00 1.15 1.24 1.33 1.32 1.46 1.52 1.55 1.50 1.51 1.50 1.55 1.65 1.67 1.47
0.50 0.46 0.44 0.42 0.40 0.39 0.40 0.37 0.38 0.44 0.52 0.59 0.63 0.65 0.70 0.74 0.65 0.66 1.05 1.02 1.27 1.34 1.30 1.25 1.17 1.15 1.05 1.13 1.13 1.15 0.96 1.14 1.24 1.37 1.43 1.45 1.50 1.58 1.48 1.41 1.50 1.45 1.57 1.61 1.44
0.52 0.50 0.47 0.43 0.41 0.40 0.38 0.36 0.36 0.33 0.40 0.49 0.57 0.61 0.62 0.64 0.49 0.83 1.09 1.20 1.25 1.34 1.26 1.10 1.01 0.97 0.94 0.84 0.93 0.97 1.06 1.21 1.15 1.36 1.35 1.39 1.50 1.43 1.50 1.51 1.64 1.68 1.68 1.60 1.41
0.52 0.50 0.49 0.46 0.43 0.39 0.37 0.36 0.33 0.32 0.36 0.37 0.46 0.55 0.50 0.45 0.50 1.01 1.12 1.26 1.25 1.23 1.10 0.99 0.91 0.92 0.80 0.78 0.81 0.94 1.03 1.19 1.25 1.35 1.33 1.31 1.22 1.22 1.25 1.43 1.64 1.67 1.68 1.60 1.49
0.57 0.54 0.50 0.48 0.46 0.42 0.37 0.35 0.31 0.31 0.32 0.38 0.39 0.42 0.38 0.34 0.61 1.00 1.10 1.14 1.08 1.08 1.05 1.02 0.91 0.98 0.84 0.70 0.70 0.76 1.11 1.15 1.27 1.29 1.31 1.25 1.24 1.22 1.22 1.34 1.35 1.55 1.57 1.62 1.52
0.59 0.58 0.55 0.50 0.47 0.43 0.40 0.36 0.31 0.28 0.32 0.37 0.38 0.31 0.21 0.29 0.64 0.96 1.02 1.00 1.07 1.00 0.92 0.99 1.04 0.93 0.79 0.64 0.68 0.83 1.02 1.08 1.15 1.29 1.22 1.31 1.12 1.12 1.24 1.23 1.27 1.50 1.59 1.61 1.52
0.57 0.60 0.59 0.56 0.51 0.45 0.41 0.37 0.33 0.31 0.32 0.30 0.32 0.27 0.13 0.19 0.53 0.53 0.96 0.98 1.11 1.12 1.03 0.98 0.93 0.88 0.76 0.72 0.60 0.85 0.98 0.84 1.03 1.26 1.27 1.19 0.89 1.14 1.34 1.24 1.09 1.24 1.51 1.52 1.48
0.57 0.54 0.57 0.56 0.54 0.49 0.41 0.37 0.34 0.38 0.34 0.33 0.25 0.17 0.10 0.17 0.17 0.37 0.52 0.52 0.88 1.02 0.93 0.83 0.78 0.72 0.71 0.60 0.53 0.67 0.73 0.81 0.83 1.16 1.17 1.09 0.95 1.15 1.28 1.26 1.12 1.14 1.17 1.31 1.40
0.58 0.54 0.51 0.53 0.51 0.49 0.41 0.35 0.39 0.35 0.39 0.40 0.28 0.12 0.12 0.11 0.21 0.24 0.33 0.40 0.53 0.59 0.66 0.64 0.61 0.57 0.61 0.54 0.44 0.52 0.64 0.74 0.84 0.95 1.01 1.00 0.92 1.05 1.17 1.20 1.17 1.16 1.21 1.17 1.27
0.60 0.56 0.52 0.48 0.49 0.44 0.39 0.30 0.22 0.17 0.17 0.13 0.19 0.11 0.13 0.18 0.20 0.20 0.28 0.32 0.41 0.48 0.47 0.54 0.49 0.46 0.56 0.59 0.59 0.59 0.60 0.64 0.67 0.89 0.92 0.85 0.86 0.98 1.01 1.08 1.12 1.15 1.19 1.22 1.19
0.62 0.59 0.54 0.50 0.45 0.40 0.39 0.26 0.26 0.25 0.13 0.15 0.12 0.13 0.17 0.17 0.13 0.17 0.24 0.23 0.29 0.35 0.47 0.49 0.41 0.53 0.62 0.63 0.55 0.53 0.53 0.55 0.58 0.64 0.74 0.70 0.70 0.83 1.00 0.98 1.02 1.10 1.16 1.20 1.19
0.65 0.61 0.56 0.53 0.44 0.36 0.31 0.29 0.38 0.33 0.16 0.14 0.12 0.10 0.10 0.11 0.09 0.11 0.18 0.19 0.24 0.31 0.39 0.41 0.44 0.57 0.55 0.54 0.53 0.52 0.51 0.55 0.54 0.60 0.61 0.63 0.59 0.70 0.85 1.02 1.08 1.14 1.21 1.23 1.22
0.67 0.64 0.57 0.49 0.38 0.35 0.29 0.35 0.40 0.34 0.13 0.13 0.10 0.12 0.12 0.10 0.07 0.10 0.14 0.18 0.19 0.24 0.35 0.37 0.51 0.53 0.49 0.49 0.55 0.48 0.55 0.54 0.52 0.52 0.46 0.57 0.46 0.64 0.80 0.87 0.96 1.04 1.10 1.18 1.25
0.68 0.65 0.60 0.52 0.42 0.35 0.33 0.38 0.38 0.26 0.07 0.13 0.15 0.21 0.18 0.11 0.11 0.08 0.11 0.15 0.16 0.18 0.27 0.30 0.41 0.47 0.42 0.49 0.54 0.52 0.61 0.55 0.53 0.50 0.52 0.52 0.44 0.51 0.64 0.71 0.85 0.97 1.08 1.15 1.22
0.70 0.62 0.59 0.53 0.47 0.46 0.43 0.39 0.28 0.13 0.08 0.13 0.17 0.15 0.14 0.15 0.12 0.13 0.09 0.11 0.15 0.18 0.21 0.25 0.41 0.49 0.46 0.52 0.53 0.56 0.53 0.53 0.51 0.48 0.39 0.51 0.49 0.48 0.54 0.65 0.77 0.93 1.00 0.99 1.07
0.69 0.58 0.55 0.54 0.40 0.47 0.43 0.28 0.14 0.09 0.16 0.15 0.15 0.16 0.16 0.16 0.15 0.11 0.08 0.07 0.10 0.14 0.15 0.18 0.27 0.37 0.46 0.47 0.51 0.52 0.46 0.38 0.35 0.34 0.32 0.47 0.47 0.50 0.56 0.65 0.72 0.81 0.87 0.96 1.04
0.65 0.55 0.52 0.53 0.56 0.51 0.38 0.20 0.11 0.14 0.15 0.18 0.17 0.16 0.15 0.18 0.17 0.12 0.09 0.08 0.10 0.13 0.14 0.14 0.15 0.26 0.34 0.39 0.44 0.44 0.44 0.37 0.30 0.31 0.32 0.42 0.35 0.47 0.63 0.67 0.67 0.76 0.72 0.73 1.03
0.58 0.50 0.47 0.48 0.51 0.47 0.29 0.16 0.15 0.16 0.20 0.18 0.17 0.16 0.16 0.18 0.18 0.15 0.12 0.12 0.14 0.16 0.13 0.15 0.15 0.21 0.27 0.34 0.41 0.41 0.40 0.49 0.41 0.41 0.35 0.37 0.39 0.47 0.57 0.61 0.64 0.73 0.90 0.83 0.92
0.51 0.45 0.46 0.54 0.53 0.36 0.24 0.19 0.18 0.23 0.23 0.20 0.16 0.17 0.17 0.17 0.17 0.18 0.18 0.23 0.21 0.21 0.20 0.20 0.17 0.20 0.21 0.24 0.29 0.32 0.40 0.36 0.39 0.31 0.28 0.31 0.31 0.36 0.53 0.58 0.64 0.78 0.78 0.80 1.00
0.51 0.39 0.52 0.58 0.52 0.35 0.20 0.20 0.22 0.26 0.26 0.22 0.18 0.17 0.18 0.18 0.20 0.21 0.22 0.24 0.24 0.22 0.19 0.18 0.19 0.21 0.22 0.18 0.18 0.22 0.24 0.29 0.36 0.37 0.29 0.28 0.28 0.39 0.47 0.58 0.61 0.71 0.65 0.75 0.98
0.53 0.37 0.57 0.55 0.36 0.35 0.28 0.28 0.28 0.26 0.28 0.26 0.22 0.21 0.19 0.20 0.21 0.23 0.23 0.26 0.31 0.30 0.19 0.22 0.15 0.18 0.18 0.22 0.23 0.23 0.20 0.23 0.23 0.27 0.30 0.31 0.32 0.40 0.50 0.56 0.58 0.71 0.64 0.76 0.94
0.47 0.45 0.59 0.52 0.31 0.34 0.37 0.33 0.32 0.27 0.28 0.26 0.22 0.22 0.22 0.20 0.22 0.26 0.27 0.30 0.32 0.35 0.31 0.25 0.12 0.12 0.17 0.18 0.20 0.19 0.21 0.22 0.22 0.27 0.26 0.26 0.29 0.40 0.45 0.48 0.56 0.63 0.68 0.64 0.82
0.45 0.35 0.42 0.44 0.43 0.39 0.38 0.38 0.34 0.35 0.29 0.30 0.26 0.24 0.21 0.21 0.23 0.22 0.26 0.27 0.30 0.31 0.34 0.34 0.27 0.16 0.14 0.17 0.19 0.17 0.17 0.18 0.19 0.18 0.20 0.22 0.28 0.35 0.37 0.43 0.52 0.57 0.84 0.69 0.72
0.42 0.35 0.41 0.33 0.36 0.37 0.42 0.42 0.38 0.35 0.36 0.34 0.30 0.26 0.23 0.21 0.21 0.21 0.22 0.25 0.28 0.29 0.31 0.34 0.29 0.25 0.28 0.26 0.24 0.22 0.19 0.18 0.17 0.16 0.16 0.19 0.21 0.26 0.31 0.39 0.57 0.74 0.77 0.78 0.75
0.38 0.37 0.41 0.37 0.39 0.36 0.39 0.44 0.45 0.46 0.41 0.34 0.31 0.32 0.29 0.26 0.26 0.22 0.23 0.23 0.24 0.27 0.27 0.29 0.29 0.27 0.22 0.23 0.23 0.21 0.22 0.25 0.25 0.19 0.18 0.19 0.21 0.27 0.38 0.54 0.66 0.79 0.79 0.80 0.84
0.51 0.54 0.44 0.38 0.38 0.36 0.40 0.44 0.51 0.54 0.48 0.47 0.40 0.34 0.31 0.34 0.35 0.33 0.31 0.30 0.28 0.24 0.26 0.26 0.25 0.22 0.19 0.25 0.24 0.20 0.23 0.24 0.23 0.24 0.24 0.22 0.28 0.65 0.69 0.62 0.74 0.77 0.89 0.88 0.90
Wind_Speed
11 11 11 12 12 12 13 13 13 13 13 12 11 11 11 10 10 9 8 7 8 9 6 6 4 3 2 3 3 5 6 7 8 10 13 15 11 10 7 10 7 6 7 13 15
12 13 13 13 14 14 14 15 15 15 15 14 14 13 12 12 11 12 10 9 10 11 8 7 5 4 3 3 4 3 5 9 8 7 14 16 13 11 9 8 8 8 10 14 15
14 14 15 15 16 16 16 16 17 17 17 16 16 16 14 13 13 11 11 12 13 13 9 7 6 5 3 3 4 4 6 7 10 7 13 14 11 9 11 10 10 11 12 15 15
15 15 16 16 17 17 18 18 18 18 18 18 18 17 16 15 14 12 12 14 15 14 12 9 7 5 3 2 4 2 3 6 8 9 13 13 12 10 8 6 10 11 15 16 16
16 16 17 17 18 18 19 19 20 19 19 20 20 19 17 18 17 14 14 16 17 15 14 12 10 6 3 3 4 3 3 9 11 11 13 12 10 9 8 8 10 12 15 16 15
18 18 18 18 19 19 19 20 21 21 21 20 20 20 20 21 18 18 18 18 17 18 16 14 10 8 6 4 4 2 4 10 11 11 12 11 10 8 7 9 10 12 15 16 16
18 18 19 19 20 20 21 21 20 21 21 21 21 20 23 23 20 20 22 22 19 19 17 16 14 11 7 6 4 5 8 10 11 12 12 11 9 8 9 9 11 12 14 16 16
19 19 19 20 20 21 21 21 21 20 20 20 20 21 22 23 24 22 23 23 23 21 19 16 16 15 13 8 8 9 10 12 11 11 9 12 9 9 10 9 10 13 14 15 16
20 20 20 20 20 21 21 21 19 18 18 18 21 22 23 22 26 27 25 24 25 24 21 18 17 17 15 14 12 12 9 9 11 11 9 10 6 9 10 10 10 11 13 15 16
22 22 22 22 22 21 21 20 18 19 19 19 21 21 25 24 23 26 28 27 26 25 23 23 20 19 19 16 14 13 12 10 10 12 12 11 8 9 11 11 11 11 12 14 16
23 23 23 23 23 21 20 18 18 19 21 21 17 22 19 24 26 26 28 30 30 28 28 28 25 25 23 21 15 11 12 12 10 10 11 11 9 11 12 12 13 12 12 13 16
25 25 25 24 23 21 19 17 17 19 21 24 26 25 25 23 24 29 28 31 32 32 31 27 31 27 24 22 19 16 15 14 11 12 13 11 11 11 13 14 14 13 13 14 15
26 26 25 24 21 19 18 17 19 20 22 22 24 24 25 28 28 29 32 33 34 36 35 35 30 29 26 24 23 21 19 16 12 12 14 12 14 14 12 14 15 15 15 15 15
27 26 25 23 19 18 18 18 19 19 21 21 23 22 23 23 27 31 32 33 33 37 37 36 33 31 30 30 26 24 21 16 16 14 13 12 11 12 13 13 16 17 17 16 16
26 25 23 20 20 18 17 17 17 17 18 17 21 21 22 25 20 28 31 34 35 35 36 37 37 34 33 32 29 25 19 21 18 18 17 17 15 15 12 13 16 17 17 17 17
25 23 20 15 16 16 16 15 14 17 19 17 19 23 23 26 24 21 29 33 33 33 35 37 33 35 34 32 30 27 21 21 20 20 22 20 16 14 16 14 15 17 17 17 17
23 19 14 12 12 12 13 12 13 18 14 16 18 20 23 23 24 24 28 34 33 33 35 35 37 35 33 34 30 30 26 23 22 23 23 21 20 20 9 11 11 14 15 17 19
21 15 12 12 11 11 11 12 15 11 15 14 17 19 22 22 21 23 25 30 33 33 32 35 36 38 32 38 35 33 32 26 26 22 22 25 20 20 19 17 16 14 14 14 19
18 13 11 10 9 9 11 13 10 10 12 14 16 20 19 20 19 20 23 25 26 30 34 33 37 37 35 34 36 33 37 32 29 25 20 21 22 21 21 20 15 16 12 11 14
15 11 10 9 8 9 12 13 11 11 11 13 16 16 19 18 21 22 22 20 22 26 29 23 31 29 31 32 34 37 29 32 30 30 30 25 24 18 14 14 15 15 11 10 11
12 11 10 10 9 10 12 11 12 11 12 12 13 15 16 16 16 18 19 16 17 20 27 27 27 26 27 32 32 30 31 31 30 32 27 25 25 22 22 20 16 16 11 9 10
11 9 10 10 10 9 11 10 11 12 13 13 14 14 14 15 16 16 17 14 15 18 22 26 28 25 32 26 30 33 33 33 30 30 26 25 22 16 16 15 16 16 9 8 9
11 9 9 9 10 10 9 11 11 12 12 13 15 15 15 15 15 15 17 15 13 15 17 19 27 29 25 27 28 31 30 34 33 30 30 27 26 24 22 18 16 14 13 9 10
9 8 9 9 10 13 12 12 12 11 12 13 14 16 17 16 14 16 17 15 14 14 15 18 19 24 26 31 27 32 30 31 32 31 31 31 24 22 21 21 19 16 17 13 12
11 11 12 11 11 12 14 13 14 13 12 13 15 16 17 17 16 15 15 17 16 15 16 16 18 19 18 19 23 25 31 32 32 33 32 27 30 29 28 25 21 20 18 15 13
12 13 12 13 14 11 10 12 14 12 13 13 14 15 17 16 16 17 16 16 16 16 16 16 17 17 19 19 22 24 29 30 29 30 29 30 28 22 22 23 23 22 21 19 16
14 13 12 13 13 13 8 11 12 13 14 12 14 16 17 14 14 14 15 15 15 16 17 17 17 18 19 19 19 24 28 28 29 30 29 30 26 20 22 22 22 22 22 20 19
Wind_Direction
296 293 289 286 282 279 276 273 271 270 267 264 261 259 259 261 259 237 233 217 203 182 174 164 164 152 134 117 120 129 151 157 155 167 168 164 164 161 149 155 161 151 141 150 151
294 291 288 286 283 280 276 273 271 268 265 261 259 258 257 258 245 238 226 212 194 186 179 175 173 158 149 123 117 134 118 164 181 171 167 175 170 169 170 166 167 152 143 149 154
297 292 288 284 282 280 278 273 269 266 263 260 258 255 253 252 241 225 226 211 197 192 191 188 177 175 178 156 143 117 98 142 166 157 167 171 167 171 165 184 176 171 162 161 160
299 294 290 286 283 280 277 273 271 266 261 258 255 251 248 237 235 228 220 205 197 199 195 192 190 184 176 163 145 156 121 155 156 156 158 164 161 163 166 148 165 164 166 163 163
301 296 292 289 286 282 278 274 270 264 261 257 252 246 239 233 234 223 211 203 201 202 200 198 198 200 195 168 173 172 143 159 153 168 159 155 160 160 163 152 155 162 167 168 167
302 297 293 290 288 285 281 276 269 263 260 255 248 241 235 234 229 222 213 206 208 206 208 206 207 207 229 212 196 183 163 156 154 158 161 166 162 166 173 175 169 167 174 174 171
305 300 295 291 288 285 282 277 270 264 258 252 243 236 235 231 229 223 217 213 213 211 211 211 214 219 224 219 201 193 166 162 166 162 166 165 169 186 160 165 172 172 171 173 175
308 302 297 293 290 287 283 276 270 262 255 246 237 236 236 230 227 223 217 217 216 216 218 216 217 221 221 218 216 205 201 179 176 176 176 195 163 164 165 166 170 178 177 178 180
310 304 299 295 292 289 282 276 266 255 249 243 239 237 237 229 226 223 220 218 216 217 217 216 214 217 211 216 214 202 207 200 180 196 181 205 156 175 181 180 175 178 182 187 187
310 305 300 296 292 289 284 272 258 253 248 245 240 236 233 228 225 223 220 219 214 215 216 216 214 214 211 210 212 206 210 195 190 194 202 203 202 189 195 195 187 184 185 190 193
310 306 301 296 292 286 281 266 257 250 244 242 241 235 232 231 225 222 218 216 216 215 215 212 213 213 212 212 228 226 218 201 205 199 210 220 221 199 203 206 199 195 195 195 197
310 306 302 297 290 282 274 266 261 257 255 244 242 241 236 232 228 221 216 214 214 216 215 213 218 214 216 216 216 216 215 211 205 213 219 223 229 219 204 213 210 205 203 201 197
310 306 301 297 286 276 271 266 264 257 251 243 238 238 234 228 228 224 216 216 216 217 215 219 216 217 215 213 215 218 218 214 220 209 224 232 236 222 218 218 217 214 210 205 199
311 305 299 296 279 276 267 266 266 255 250 234 235 231 229 227 229 222 219 217 220 221 218 222 218 216 214 218 215 219 218 222 221 225 226 220 230 208 210 218 215 212 211 210 207
313 308 298 289 280 270 267 267 260 250 248 233 226 226 226 223 226 219 217 217 221 219 218 219 218 215 217 217 216 223 218 223 228 230 236 229 233 242 219 220 213 212 211 213 212
316 312 303 285 274 268 264 262 253 244 241 233 229 226 225 221 222 219 215 218 219 220 222 224 219 220 220 219 220 221 220 223 228 235 236 230 236 238 225 219 214 208 214 217 220
318 313 305 290 279 268 260 247 249 246 241 233 228 226 224 217 216 218 212 210 211 212 215 217 221 219 219 217 214 219 217 223 226 227 232 232 232 225 207 205 221 215 221 229 229
317 309 305 297 281 264 248 243 251 258 241 238 233 225 220 215 217 212 212 209 215 220 218 214 216 213 213 218 214 219 220 224 225 228 231 225 227 228 232 235 232 228 240 249 233
312 301 300 303 285 250 242 240 261 253 248 238 228 221 213 212 218 206 206 210 210 215 218 214 219 214 219 217 218 216 223 226 236 239 240 226 226 232 233 234 230 230 240 255 244
311 296 296 293 283 255 246 250 258 252 247 230 225 220 211 208 209 209 204 212 215 215 214 215 212 212 212 215 218 224 220 220 225 231 234 229 233 225 210 218 209 218 244 264 253
308 293 296 286 278 255 250 251 253 242 240 228 223 218 216 211 214 203 207 203 213 211 212 214 216 204 205 212 208 212 219 219 227 225 232 233 232 227 226 233 235 232 248 263 255
322 299 300 281 269 264 255 252 251 240 230 232 227 221 216 210 207 207 200 208 213 210 206 211 214 213 216 212 218 220 217 217 222 222 229 239 233 212 215 215 220 225 245 255 254
336 327 315 289 274 258 257 250 246 240 231 227 221 220 213 210 210 203 202 207 210 207 208 205 214 215 210 208 214 219 218 223 226 230 228 228 230 231 231 232 228 234 238 256 252
2 356 353 328 285 272 265 252 243 235 231 227 222 216 212 210 211 203 200 207 208 207 210 208 211 218 221 221 218 215 220 221 225 226 229 231 232 222 220 232 238 246 240 257 259
360 360 349 339 334 287 261 251 246 233 230 224 217 218 210 209 209 205 207 205 208 209 209 211 208 213 212 214 217 223 218 221 225 229 231 232 234 235 241 241 239 241 240 251 254
353 349 352 350 342 318 265 248 242 236 232 214 223 212 213 217 217 211 212 214 214 213 214 213 210 215 214 217 219 222 222 226 228 228 232 235 237 239 236 237 239 241 245 249 251
354 349 344 347 347 344 316 251 241 244 220 225 226 222 210 206 217 220 220 218 217 219 215 217 215 214 216 212 220 225 223 224 226 228 232 233 237 233 233 237 240 243 243 243 246